Regional Weather Roundup
Issued by NWS

Home | Current Version | Previous Version | Graphics & Text | Print | Product List | Glossary On
Versions: 1 2 3 4 5 6 7 8 9 10 11 12 13 14 15 16 17 18 19 20 21 22 23 24 25 26 27 28 29 30 31 32 33 34 35 36 37 38 39 40 41 42 43 44 45 46 47 48 49 50
000
ASUS45 KABQ 290910
RWRNM
NEW MEXICO REGIONAL WEATHER ROUNDUP
NATIONAL WEATHER SERVICE ALBUQUERQUE NM
300 AM MDT FRI MAY 29 2015

NOTE: "FAIR" MEANS FEW OR NO CLOUDS BELOW 12,000 FEET AGL WITH NO
       SIGNIFICANT WEATHER OR OBSTRUCTIONS TO VISION.

      THIS PRODUCT IS RELEASED AS TWO VERSIONS.  ONE VERSION NEAR
      THE TOP OF THE HOUR CONTAINING PRELIMINARY DATA FROM ALBUQUERQUE
      AND OTHER STATIONS.  A FINAL VERSION WITH ADDITIONAL DATA IS
      ISSUED ABOUT 10 MINUTES AFTER THE HOUR.

NMZ501-503-504-510>518-291000-
NORTHWEST PLATEAU/NORTHCENTRAL MOUNTAINS

CITY           SKY/WX    TMP DP  RH WIND       PRES   REMARKS
FARMINGTON     CLEAR     53  37  54 CALM      30.12S
LOS ALAMOS     CLEAR     54  35  48 N12       30.21F
SANTA FE       CLEAR     54  34  46 N15       30.14R
TAOS           CLEAR     45  27  49 SE7       30.22R
ANGEL FIRE     FAIR      36  32  86 CALM      30.28F

$$
NMZ402-403-502-505>509-291000-
WESTCENTRAL MOUNTAINS/SOUTHWEST MOUNTAINS

CITY           SKY/WX    TMP DP  RH WIND       PRES   REMARKS
GALLUP         CLEAR     51  35  54 N3        30.19S
GRANTS         PTCLDY    47  28  47 NW10G20   30.20S
SILVER CITY      N/A     57  19  23 NW14      30.11F

$$
NMZ407-409-411-412-291000-
SOUTHERN DESERTS

CITY           SKY/WX    TMP DP  RH WIND       PRES   REMARKS
LORDSBURG      FAIR      61  21  21 NW6       30.04S
DEMING         CLEAR     59  20  22 SW9       30.03R
LAS CRUCES     CLEAR     66  17  15 NW5       30.02S
HOLLOMAN AFB   CLEAR     59  22  23 N7        29.96S
ALAMOGORDO     CLEAR     59  19  21 NE5       29.98S
T OR C         CLEAR     68  17  14 NW8       30.03S

$$
NMZ519>523-291000-
CENTRAL VALLEYS/CENTRAL HIGHLANDS

CITY           SKY/WX    TMP DP  RH WIND       PRES   REMARKS
ALBUQUERQUE    CLEAR     64  32  30 N10       30.09S
DOUBLE EAGLE   CLEAR     57  35  43 NW13      30.12S
MORIARTY ARPT  FAIR      43  33  68 N3        30.15S
CLINES CORNERS CLEAR     52  45  77 NE3       30.17S
BELEN          FAIR      61  32  33 NW10      30.08S
SOCORRO        FAIR      60  24  25 SW3       30.06R

$$
NMZ524>526-539-540-291000-
SOUTHCENTRAL MOUNTAINS

CITY           SKY/WX    TMP DP  RH WIND       PRES   REMARKS
RUIDOSO        CLEAR     59  21  23 NW8       30.18R

$$
NMZ527>531-291000-
NORTHEAST HIGHLANDS/NORTHEAST PLAINS

CITY           SKY/WX    TMP DP  RH WIND       PRES   REMARKS
LAS VEGAS      FOG       45  44  97 N8        30.17F VSB 1/2
RATON          CLEAR     50  46  86 CALM      30.15S
CLAYTON        MOCLDY    52  48  86 W6        30.08F

$$
NMZ532>537-291000-
EASTCENTRAL PLAINS

CITY           SKY/WX    TMP DP  RH WIND       PRES   REMARKS
TUCUMCARI      PTCLDY    56  52  86 CALM      30.03R
CANNON AFB     MOCLDY    55  52  90 E7        30.04S
CLOVIS AIRPORT MOCLDY    54  48  82 CALM      30.02R

$$
NMZ028-029-538-291000-
SOUTHEAST PLAINS

CITY           SKY/WX    TMP DP  RH WIND       PRES   REMARKS
ROSWELL        CLEAR     57  52  83 SW5       29.98S
ARTESIA        CLEAR     57  55  94 CALM      29.98R
CARLSBAD       CLEAR     57  53  86 SE5       29.95F
HOBBS          MOCLDY    55  55 100 SW7       29.97F


$$



USA.gov is the U.S. government's official web portal to all federal, state and local government web resources and services.